St. Johnsbury, VT

9:40 AM EDT on October 23, 2019 (GMT -0400)
St. Johnsbury

Weather History for K1V4 - August, 2019

Change the Weather History Date:

Thursday, August 22, 2019

  Actual Average Record
Temperature  
Mean Temperature 69 °F 67 °F  
Max Temperature 81 °F 78 °F 85 °F (2013)
Min Temperature 57 °F 56 °F 45 °F (2007)
Degree Days  
Heating Degree Days 0 1  
Month to date heating degree days 14 21  
Since 1 June heating degree days 128 108  
Since 1 July heating degree days 14 36  
Cooling Degree Days 4 3  
Month to date cooling degree days 72 95  
Year to date cooling degree days 289 372  
Since 1 June cooling degree days 283 354  
Growing Degree Days 19 (Base 50)    
Moisture  
Dew Point 63 °F    
Average Humidity 82    
Maximum Humidity 100    
Minimum Humidity 42    
Precipitation  
Precipitation 0.00 in 0.12 in 0.69 in (2010)
Month to date precipitation 2.74 3.26  
Year to date precipitation 32.41 24.80  
Sea Level Pressure  
Sea Level Pressure 29.79 in    
Wind  
Wind Speed - ()    
Max Wind Speed -    
Max Gust Speed -    
T = Trace of Precipitation, MM = Missing Value Source: Averaged Metar Reports

Daily Weather History Graph

Daily Weather History Graph

Search for Another Location

Airport or City:

Astronomy

Aug. 22, 2019 Rise Set
Actual Time 5:58 AM EDT 7:42 PM EDT
Civil Twilight 5:28 AM EDT 8:13 PM EDT
Nautical Twilight 4:50 AM EDT 8:50 PM EDT
Astronomical Twilight 4:09 AM EDT 9:30 PM EDT
Moon 11:14 PM EDT (8/22) 12:46 PM EDT (8/22)
Length of Visible Light 14h 45m
Length of Day
13h 43m
Waning Gibbous, 60% of the Moon is Illuminated
Aug 22
Waning Gibbous
Aug 23
Last Quarter
Aug 30
New
Sep 5
First Quarter
Sep 14
Full

Hourly Weather History & Observations

Time (EDT) Temp. Dew Point Humidity Pressure Visibility Wind Dir Wind Speed Gust Speed Precip Events Conditions
12:54 AM 66.9 °F 66.9 °F 100% 29.77 in - North - - N/A   Unknown
1:54 AM 66.0 °F 66.0 °F 100% 29.78 in - North - - N/A   Unknown
2:54 AM 66.9 °F 66.9 °F 100% 29.78 in - North - - N/A   Unknown
3:54 AM 66.0 °F 66.0 °F 100% 29.77 in - North - - N/A   Unknown
5:54 AM 66.0 °F 66.0 °F 100% 29.77 in - North - - N/A   Unknown
6:54 AM 66.0 °F 66.0 °F 100% 29.78 in - North - - N/A   Unknown
7:54 AM 66.9 °F 66.0 °F 97% 29.79 in - North - - N/A   Unknown
8:54 AM 68.0 °F 66.0 °F 93% 29.78 in - North - - N/A   Unknown
9:54 AM 72.0 °F 66.9 °F 84% 29.78 in - North - - N/A   Unknown
10:54 AM 75.0 °F 68.0 °F 79% 29.78 in - North - - N/A   Unknown
11:54 AM 77.0 °F 68.0 °F 74% 29.76 in - North - - N/A   Unknown
12:54 PM 79.0 °F 68.0 °F 69% 29.75 in - North - - N/A   Unknown
1:54 PM 79.0 °F 63.0 °F 58% 29.77 in - North - - N/A   Unknown
3:54 PM 78.1 °F 53.1 °F 42% 29.79 in - North - - N/A   Unknown
4:54 PM 75.0 °F 54.0 °F 48% 29.79 in - North - - N/A   Unknown
5:54 PM 75.9 °F 55.0 °F 48% 29.79 in - North - - N/A   Unknown
7:54 PM 68.0 °F 61.0 °F 78% 29.81 in - North - - N/A   Unknown
8:54 PM 68.0 °F 57.9 °F 70% 29.83 in - North - - N/A   Unknown
9:54 PM 63.0 °F 60.1 °F 90% 29.85 in - North - - N/A   Unknown
10:54 PM 61.0 °F 59.0 °F 93% 29.86 in - North - - N/A   Unknown
11:54 PM 59.0 °F 57.9 °F 96% 29.87 in - North - - N/A   Unknown